Wind_Speed
13 13 12 12 12 12 12 12 12 12 12 12 12 12 12 11 12 12 12 12 12 13 14 15 15 14 13 12 10 10 10 9 9 8 8 11 11 9 7 9 10 9 7 5 5 5 4 3 2 2 1 2 2 2 2 2 3 4 6 6 6 8 9 10 10 11 12 11 13 12 11 10 7 4 3 3 5 7 10 13 14 15 16 18 20 23 25 25
13 13 13 13 13 13 13 13 13 13 12 12 12 12 12 12 12 12 13 13 12 13 14 15 15 15 14 13 11 10 10 10 10 8 9 11 10 10 9 9 11 10 8 7 6 6 6 3 1 1 1 2 2 2 2 3 3 4 5 6 7 8 9 11 12 12 12 12 12 12 11 11 8 5 2 2 5 7 8 11 14 15 17 20 22 25 25 24
14 14 14 14 13 13 13 13 13 13 13 13 13 13 12 12 12 12 12 12 13 13 14 14 14 15 15 14 12 10 10 10 11 11 11 9 10 12 10 10 12 11 10 9 7 7 6 3 2 2 1 2 3 2 1 3 4 2 3 5 7 9 10 11 13 13 13 12 12 12 11 11 10 8 5 1 4 7 8 10 14 16 18 21 23 25 24 24
13 14 13 14 14 14 14 14 13 13 14 14 13 13 13 13 12 12 12 12 13 13 14 14 14 15 15 15 12 10 9 9 13 13 9 8 10 11 11 11 13 13 12 11 9 7 6 2 3 2 2 2 2 3 2 3 4 3 5 6 6 9 11 11 11 11 12 13 13 12 12 12 10 10 6 2 3 8 10 10 14 16 18 21 22 25 24 24
13 13 13 13 13 14 14 14 13 13 13 14 14 13 13 13 13 13 12 12 12 12 14 14 14 14 14 15 13 11 7 5 14 13 6 8 11 13 13 12 14 15 14 11 9 6 5 4 5 2 1 2 3 3 3 3 5 4 5 7 6 9 11 10 11 12 13 14 14 14 13 12 10 9 7 4 4 7 10 9 13 16 17 19 21 24 24 25
12 12 12 12 13 13 13 14 13 13 13 13 14 13 14 14 14 14 13 13 12 12 13 13 14 13 14 15 13 13 9 7 12 10 7 10 11 14 14 14 17 16 14 11 10 7 6 5 5 4 2 4 4 5 5 4 7 6 5 7 7 9 10 10 12 13 14 14 15 15 14 11 9 9 7 3 4 7 9 10 13 16 17 18 20 23 24 25
11 11 11 11 12 12 13 13 13 13 12 13 13 13 14 14 15 14 13 13 13 13 13 13 14 13 14 14 14 15 14 14 13 6 8 12 12 16 15 16 18 17 16 12 11 9 9 6 8 7 5 5 5 6 6 6 8 9 7 7 8 8 9 10 11 11 12 13 14 15 13 9 8 9 8 3 3 6 10 11 15 17 17 18 21 23 24 25
11 10 10 10 11 11 12 12 13 12 12 12 12 13 13 14 14 14 13 13 14 14 12 13 13 14 14 12 15 15 12 18 17 6 8 12 13 16 16 17 19 17 16 12 10 10 10 7 9 8 7 6 6 6 7 7 8 8 8 8 9 9 10 10 10 11 13 14 14 17 14 8 6 7 7 2 2 7 10 12 16 18 18 19 21 24 26 25
11 10 10 10 10 11 10 11 12 11 11 11 11 12 13 13 13 13 13 14 14 14 13 13 13 14 14 13 15 13 12 22 19 8 7 11 14 16 15 16 19 17 15 13 11 10 10 7 9 10 10 9 8 8 7 8 8 8 9 10 10 11 12 11 10 11 15 14 14 18 15 8 6 7 8 6 2 6 9 13 16 19 20 20 22 25 25 24
11 11 11 11 11 10 10 10 10 11 11 11 11 11 12 13 13 13 13 14 14 14 14 13 13 14 14 14 15 13 16 25 20 12 9 11 15 15 13 15 19 17 15 12 11 9 9 7 9 9 10 11 10 9 8 9 10 9 11 13 12 13 14 13 12 12 14 14 14 18 15 6 7 7 6 10 6 5 8 12 16 18 19 21 23 25 25 24
11 11 11 11 11 11 10 10 9 10 10 10 11 11 12 12 12 13 13 14 14 14 14 14 14 15 14 15 16 15 18 23 20 16 13 11 14 13 12 16 19 18 14 10 9 10 11 9 9 9 9 11 11 10 9 9 9 10 13 16 16 17 17 15 13 12 13 14 14 18 13 6 9 9 5 10 10 4 9 12 16 18 20 22 23 25 27 26
11 11 11 11 11 11 10 10 9 9 9 10 11 11 11 11 11 12 13 14 13 13 14 14 14 14 15 15 16 20 23 22 19 17 14 12 13 13 13 17 19 18 14 9 7 10 12 10 11 13 13 11 12 12 9 6 8 11 14 18 20 19 18 17 15 12 12 13 15 18 13 7 9 10 7 11 14 5 9 13 18 19 21 23 24 26 28 28
11 11 10 11 11 11 11 10 9 9 9 9 10 10 10 10 10 11 12 12 12 13 13 14 14 14 15 13 17 24 26 22 18 15 14 13 13 14 15 17 19 19 16 13 9 12 12 11 11 15 14 13 14 13 10 7 11 13 14 17 19 19 17 16 15 11 11 11 14 15 11 8 10 12 10 11 13 4 9 13 18 20 22 24 25 26 26 27
12 12 11 11 11 11 11 10 10 9 9 9 10 10 10 10 10 10 11 11 11 12 13 13 13 14 16 16 21 26 24 20 17 14 14 13 14 14 14 17 19 19 17 17 15 10 13 13 14 15 14 13 11 12 13 11 12 13 13 15 15 16 15 16 17 12 10 10 13 13 8 9 13 13 10 11 13 4 8 13 17 20 21 24 25 26 26 27
13 12 11 11 11 11 11 10 10 10 9 9 9 9 9 9 9 9 10 9 10 11 12 13 13 14 15 16 20 21 20 20 16 14 14 13 13 13 14 17 19 19 19 18 18 8 15 20 15 13 12 12 11 12 14 12 11 11 13 14 12 14 17 18 19 12 8 9 11 10 7 10 13 12 11 11 11 3 8 14 18 20 22 24 25 26 26 27
13 12 11 11 11 11 11 10 10 10 10 10 9 10 9 9 9 9 9 8 9 10 12 13 13 14 13 12 18 18 17 18 17 14 14 13 12 11 13 16 17 19 19 18 18 13 17 21 16 12 12 12 12 13 15 14 11 9 11 14 12 15 17 18 18 14 9 6 10 10 8 9 11 13 13 11 9 2 9 14 17 21 23 23 24 25 27 28
13 12 11 11 11 11 11 10 10 9 10 9 9 9 9 9 8 8 8 8 8 9 11 12 12 13 12 11 14 13 12 16 18 15 13 14 12 11 13 14 16 17 17 18 18 15 13 13 13 11 11 11 12 12 13 13 11 7 8 12 12 13 16 15 14 15 9 4 13 13 8 8 9 14 15 11 8 3 9 13 15 21 24 24 25 26 28 29
13 12 11 10 11 11 10 10 10 9 10 9 9 9 8 8 7 7 7 7 8 8 8 9 10 6 8 11 8 5 9 16 18 14 14 15 14 13 14 12 13 15 16 17 16 14 10 9 11 11 12 13 12 12 12 12 9 7 9 14 14 13 16 16 15 13 7 4 12 10 5 5 8 15 16 10 8 5 8 13 14 20 24 24 26 27 28 29
13 12 11 10 11 11 11 10 9 9 9 9 9 8 8 6 4 5 5 6 8 11 4 5 11 6 2 5 5 9 15 17 16 14 15 16 15 14 13 11 11 14 13 13 12 11 10 10 12 14 15 14 13 14 14 13 10 10 12 15 16 14 14 16 15 9 2 5 9 5 4 4 6 13 15 12 8 5 6 13 17 21 24 25 26 26 27 30
12 12 10 10 11 11 11 10 9 10 9 9 9 7 6 2 3 7 4 6 12 15 8 3 9 4 0 4 10 15 16 14 14 15 17 17 15 13 13 11 9 12 13 12 12 11 10 13 15 16 16 14 13 14 14 15 14 13 13 14 16 15 13 14 14 6 1 7 9 5 5 4 5 10 13 13 8 5 5 12 17 20 24 26 26 26 27 30
12 13 10 10 11 11 11 10 9 9 8 8 8 7 7 4 3 4 4 6 10 14 11 8 8 7 7 7 11 14 11 11 14 14 17 17 14 13 13 12 10 13 15 13 12 11 11 15 18 17 15 14 14 13 13 13 13 13 13 15 16 13 12 14 13 8 5 8 8 4 7 7 7 8 12 13 9 7 5 8 15 17 22 25 26 26 27 29
12 12 11 10 10 11 11 10 9 9 8 8 7 7 8 7 8 5 5 7 8 11 11 13 15 15 15 10 9 10 8 11 14 14 17 16 14 14 13 12 12 13 14 14 15 14 14 17 18 16 16 16 14 13 13 13 14 14 13 15 15 12 13 14 11 8 7 9 8 5 7 9 7 8 11 13 10 7 5 6 13 16 18 22 24 26 29 30
11 12 11 10 10 11 11 10 9 8 8 7 6 7 6 7 9 6 7 9 6 10 10 14 17 14 14 10 7 8 11 12 14 15 17 17 15 14 12 12 13 13 14 16 17 16 16 16 13 14 14 14 16 16 13 12 14 14 14 16 14 13 15 14 11 10 12 13 10 7 5 2 3 6 9 10 8 7 5 4 10 15 17 20 23 26 29 31
10 11 10 9 9 10 10 10 9 7 7 6 4 3 2 6 8 7 9 10 4 9 7 11 14 12 12 9 6 10 14 12 14 16 17 19 16 14 13 12 13 14 15 17 17 18 19 14 7 9 12 13 16 16 14 12 14 15 14 14 13 13 15 16 15 15 17 13 8 7 3 5 5 7 8 7 6 6 5 4 9 14 17 20 23 25 28 30
9 10 10 9 9 10 11 9 7 6 4 3 2 2 4 5 8 11 10 9 6 8 6 8 11 11 13 12 9 12 15 11 13 16 18 18 16 14 13 11 14 15 16 17 17 18 22 18 9 8 11 13 15 13 13 14 15 15 11 10 12 14 15 16 16 17 17 10 4 8 5 4 4 9 9 7 5 5 4 4 8 14 17 21 23 25 28 31
9 9 9 9 9 10 10 7 6 3 1 1 2 4 5 8 11 14 9 6 9 8 7 10 8 8 13 12 9 12 12 12 14 16 18 17 17 14 12 10 14 16 14 15 16 16 18 17 13 11 10 12 14 14 14 13 14 15 11 9 11 14 16 16 17 17 16 12 9 9 2 4 5 9 9 9 8 7 5 4 8 13 18 21 24 27 29 32
8 8 8 8 8 9 8 5 3 1 4 2 3 7 8 12 14 15 6 4 9 9 8 11 7 7 10 9 11 15 9 10 15 17 18 16 17 15 14 11 11 14 13 12 14 15 15 16 15 12 9 11 14 15 13 12 14 14 11 11 13 16 17 17 18 16 15 14 12 7 3 3 3 7 7 10 12 10 8 7 8 13 17 22 25 28 31 33
7 7 6 7 7 7 5 2 3 4 5 5 8 9 11 15 15 12 2 4 8 11 11 13 11 11 11 10 15 14 5 7 16 18 17 16 17 15 15 13 10 12 12 11 14 13 11 14 17 14 11 10 12 12 11 11 14 14 12 13 16 18 19 17 18 18 16 14 10 7 7 4 3 4 7 9 13 12 11 10 8 11 16 22 26 29 32 34
5 5 5 6 5 4 2 1 3 4 7 11 12 12 14 16 13 5 5 3 10 11 11 11 11 12 11 12 16 12 6 8 11 14 13 15 17 16 14 13 10 12 13 14 19 17 10 9 13 15 16 14 12 12 12 12 14 13 13 15 17 19 20 20 20 19 16 12 9 7 5 2 3 8 11 12 13 13 12 11 8 10 14 21 26 29 33 35
3 3 4 4 2 1 1 4 7 8 10 12 11 13 15 14 8 4 7 4 10 10 11 11 9 12 13 14 16 14 11 8 5 8 13 13 16 19 15 12 11 11 12 15 21 22 15 10 10 11 14 14 12 11 11 13 13 14 15 16 18 19 20 19 17 16 13 9 10 9 6 5 3 9 14 13 11 11 11 13 10 9 13 20 27 29 33 36
2 2 2 0 2 4 5 8 12 13 13 11 11 13 13 10 6 8 3 9 11 9 10 11 10 13 16 15 16 15 13 11 7 9 14 13 15 18 15 13 12 10 12 15 18 21 19 16 13 11 13 13 12 12 11 11 12 13 14 15 16 16 16 14 10 9 7 5 10 13 10 5 2 1 5 7 8 9 13 14 10 7 9 16 28 32 34 37
0 0 1 4 5 6 8 10 13 13 12 10 11 12 9 4 9 11 2 8 8 8 9 11 13 15 16 14 15 15 13 13 11 11 13 14 15 18 17 16 15 12 13 14 15 16 17 17 15 12 13 13 13 14 13 12 13 14 14 15 14 11 9 7 6 6 4 6 13 15 9 3 6 8 3 3 7 8 14 14 10 9 9 13 26 34 35 37
2 2 4 6 7 7 8 10 11 11 10 10 11 10 5 4 9 7 4 3 4 8 10 12 13 13 15 15 14 13 12 13 12 11 13 14 14 17 18 17 16 15 14 12 13 15 16 18 18 15 15 14 14 16 15 12 11 12 13 13 11 7 5 4 4 4 4 8 13 11 6 4 5 7 7 5 6 1 8 10 11 11 10 13 23 34 35 37
4 5 7 8 7 7 8 8 9 9 9 10 9 5 2 10 8 3 5 5 7 9 9 11 13 13 13 14 13 11 12 12 11 11 13 14 14 15 18 18 18 18 16 13 11 12 13 13 15 17 16 14 15 17 16 12 10 11 10 11 12 9 6 5 5 5 8 10 10 7 6 3 2 3 3 2 1 4 4 4 12 11 8 11 21 33 35 37
5 7 8 8 7 7 7 8 9 9 10 9 6 0 8 11 6 4 7 7 6 9 10 11 12 13 11 10 10 10 10 10 9 11 13 14 14 14 15 18 20 20 18 14 10 10 13 11 10 12 12 13 15 15 15 15 13 11 9 11 13 10 8 10 10 11 15 12 7 7 7 6 4 3 3 3 1 5 3 6 11 9 7 10 23 32 33 36
6 8 9 8 8 7 7 8 8 9 11 8 3 5 9 5 4 6 6 5 5 9 11 11 12 11 9 6 6 8 10 9 8 11 13 14 15 14 14 15 18 19 17 13 9 7 11 12 8 8 10 11 12 12 13 16 13 9 9 10 10 9 10 13 12 12 14 8 4 6 7 6 4 4 4 5 4 3 4 9 12 5 7 9 22 31 32 36
7 8 9 9 8 7 7 8 9 9 9 4 2 6 7 3 3 2 1 1 3 8 10 11 12 9 8 8 7 7 9 9 7 9 10 11 14 14 14 14 15 19 18 13 11 9 9 12 11 11 13 12 10 11 12 15 14 12 10 8 7 8 10 11 10 9 8 4 4 6 8 8 7 5 5 4 4 3 7 10 11 3 8 9 19 29 29 32
8 8 9 9 9 8 7 8 9 8 4 1 2 3 5 3 3 2 1 2 3 8 10 10 9 5 7 9 9 8 9 9 7 9 9 9 11 12 14 14 12 15 16 13 14 11 8 12 12 10 13 11 10 11 13 15 16 15 13 11 12 10 8 7 7 7 7 4 3 3 5 8 6 4 4 4 3 3 7 10 10 2 7 9 18 27 27 27
8 8 7 9 9 7 7 9 9 6 3 1 4 5 4 1 2 2 1 5 5 6 9 7 5 3 8 9 10 11 11 9 8 9 8 8 8 7 11 13 11 12 12 12 14 12 9 9 10 9 11 12 12 12 12 14 16 16 15 14 14 12 9 7 7 8 9 6 3 3 5 8 8 6 5 7 6 0 5 9 9 2 5 10 17 25 27 26
10 8 4 6 9 8 7 11 11 6 3 3 7 7 2 2 2 2 1 5 3 5 7 6 1 4 6 5 7 10 9 9 9 8 6 8 7 4 8 12 11 12 12 13 15 14 10 9 10 8 8 10 11 12 10 12 14 15 15 14 14 12 11 10 11 12 10 8 5 5 5 6 10 11 8 9 9 3 2 8 7 3 2 10 17 23 27 27
10 6 3 6 8 9 9 12 10 3 4 5 8 5 2 1 1 2 2 3 2 4 4 6 3 6 4 5 4 8 8 8 11 8 5 9 7 3 7 9 9 10 10 12 15 15 12 11 11 10 8 8 8 8 9 12 13 12 13 14 12 11 12 9 7 9 10 10 8 6 4 2 7 10 8 9 9 4 1 8 7 3 2 7 18 22 25 29
9 4 4 7 7 8 10 11 6 2 6 8 6 3 1 2 1 2 3 3 3 1 2 3 5 0 0 4 1 5 8 5 8 7 5 7 5 4 9 7 6 9 8 10 13 14 14 11 11 13 11 11 10 9 9 11 12 12 11 12 12 13 17 13 6 6 7 9 10 9 5 1 6 9 9 9 8 6 2 6 6 6 4 7 18 25 25 29
11 2 10 11 9 11 10 9 5 6 9 8 5 4 3 2 1 1 3 4 1 1 2 1 4 5 4 3 3 2 7 6 8 7 3 5 7 8 6 4 5 7 8 9 10 11 14 12 11 11 11 14 15 13 9 7 10 13 13 13 13 13 13 11 10 9 8 9 9 9 3 2 6 6 8 9 8 7 3 1 6 10 9 10 18 26 28 29
13 4 11 13 13 15 11 8 5 8 8 5 4 5 4 3 3 1 1 2 2 1 0 1 2 3 3 0 1 4 4 4 6 6 2 5 8 8 4 3 5 7 7 8 7 6 10 10 10 9 8 10 12 11 9 8 9 12 12 12 13 11 11 13 12 9 9 8 9 10 4 3 7 4 5 9 8 7 4 1 6 8 10 11 16 24 27 29
10 5 5 8 12 17 14 9 7 9 7 5 5 5 5 6 6 3 1 1 1 1 1 1 2 2 2 1 1 3 2 0 3 5 3 4 5 4 2 3 5 6 4 4 4 3 6 9 10 10 8 7 6 6 8 9 10 12 12 14 16 17 15 14 12 11 8 6 7 8 6 6 9 7 5 8 9 6 4 1 4 3 4 5 11 18 23 29
8 4 3 6 8 13 14 11 8 6 6 6 7 7 7 6 5 4 4 4 2 2 2 1 1 2 2 1 2 2 2 2 4 2 6 2 3 2 1 4 6 6 5 7 7 5 6 10 12 12 13 13 10 8 9 10 10 12 12 14 17 17 14 11 12 11 6 6 6 4 6 9 11 9 5 8 10 6 2 1 2 2 6 2 6 12 18 25
10 5 2 5 7 10 13 12 11 10 8 7 6 7 7 6 4 4 6 5 3 3 3 3 1 1 2 1 2 2 3 3 3 2 5 3 1 0 1 2 5 8 8 9 9 9 8 10 11 12 15 16 15 12 11 10 9 10 11 13 13 12 11 10 11 8 4 7 6 5 9 9 8 9 7 9 11 6 3 3 3 1 6 4 8 13 15 20
7 3 5 4 6 7 9 11 14 14 12 10 8 6 7 7 5 5 6 5 4 5 5 4 2 2 3 2 2 2 2 3 2 1 2 2 0 2 2 2 3 6 6 7 8 11 12 12 11 11 14 15 14 14 13 12 11 11 11 11 8 6 8 11 12 9 6 8 7 6 10 8 5 7 9 10 11 4 3 5 3 1 4 4 8 15 17 18
6 6 6 9 9 8 8 9 11 12 10 10 10 8 8 9 8 6 5 5 5 5 6 5 3 3 4 4 3 4 3 2 2 1 2 4 3 3 3 2 2 3 5 5 6 10 12 12 12 12 13 14 14 15 14 13 12 11 11 11 9 8 9 9 10 10 9 10 10 9 9 6 4 6 7 9 10 5 3 3 4 4 5 1 8 17 23 22
13 9 11 17 14 7 8 8 8 9 9 10 10 9 9 10 9 7 6 7 6 4 4 7 6 4 3 3 2 2 2 0 3 2 4 5 4 5 4 2 2 3 4 5 4 7 10 10 9 9 12 14 13 13 14 14 13 13 13 12 12 15 14 9 8 11 9 9 9 8 6 5 6 7 6 7 5 2 1 2 4 8 9 5 5 15 24 26
19 14 11 16 16 7 6 6 6 8 10 11 12 12 11 11 9 7 6 8 7 5 4 4 4 4 5 4 3 2 1 2 3 4 6 7 6 6 6 4 3 5 6 6 3 6 9 9 7 8 11 11 11 11 13 15 16 16 15 14 16 19 16 10 8 8 6 7 8 5 5 8 10 9 7 6 2 4 6 4 4 10 14 13 9 11 19 23
16 17 13 14 15 9 5 6 7 9 9 9 11 10 9 10 9 7 8 8 6 7 7 5 4 5 7 5 3 4 3 2 5 7 8 10 10 10 10 9 8 8 8 7 6 5 7 9 9 9 10 11 11 12 13 14 15 15 16 16 16 15 12 10 9 7 7 9 9 5 4 6 7 8 7 7 5 5 6 7 5 6 13 17 16 14 16 18
Wind_Direction
290 288 287 287 285 286 285 284 282 278 275 272 269 267 264 262 260 258 256 252 248 246 245 244 243 242 242 245 247 251 257 258 256 251 244 236 226 222 220 211 200 182 177 179 165 143 128 140 113 101 103 57 29 21 38 23 356 348 354 346 339 349 349 345 349 346 340 341 336 335 339 339 351 31 75 143 165 173 166 155 163 168 165 165 162 163 166 163
290 288 287 286 285 285 284 284 282 279 276 272 269 266 263 261 259 258 256 252 249 245 244 244 243 241 240 242 242 248 256 257 259 252 244 240 226 219 219 212 200 185 179 182 179 143 126 152 122 248 209 51 341 344 28 357 352 346 347 338 335 348 353 347 345 344 342 342 339 338 343 345 339 338 8 158 165 178 175 158 170 176 170 169 164 165 169 164
290 288 287 286 285 283 282 282 281 279 277 273 269 266 263 260 257 256 254 253 248 244 244 243 242 241 239 238 238 244 252 262 265 251 243 241 226 218 218 212 196 185 187 188 179 143 133 187 220 249 295 20 334 341 3 334 346 331 331 340 333 341 354 347 342 348 352 353 350 346 343 345 340 329 328 190 160 171 178 167 174 181 175 170 166 165 169 165
290 289 287 286 285 284 283 282 281 279 276 274 270 266 263 260 257 254 252 252 248 245 244 241 241 240 238 236 234 237 250 272 265 250 242 237 224 215 214 209 193 187 198 192 173 151 140 190 248 263 314 335 330 338 335 325 326 313 319 320 322 340 346 340 342 354 0 1 1 357 351 346 339 332 323 247 183 172 175 174 171 173 172 170 169 166 169 169
291 290 288 287 286 285 284 282 282 279 275 273 270 267 263 259 256 253 252 252 248 246 244 241 241 238 237 234 227 230 236 266 259 249 234 231 217 208 210 203 193 190 203 199 171 176 172 189 249 255 286 324 337 317 322 320 305 312 327 317 323 339 334 333 345 355 359 359 1 358 352 346 338 338 327 268 220 186 175 180 171 167 168 171 172 167 171 171
292 291 289 288 287 286 285 284 282 279 275 271 268 266 264 260 257 253 251 251 250 248 244 241 239 236 236 230 223 223 204 214 257 254 220 224 209 205 209 197 194 190 204 203 164 200 223 194 244 254 257 307 316 301 313 320 307 313 325 318 322 331 326 339 351 350 352 350 354 351 345 347 344 343 333 288 228 207 188 184 179 171 168 171 173 167 171 170
290 290 290 289 288 287 286 285 283 279 274 269 266 264 263 262 260 256 253 251 249 247 244 241 239 235 233 227 220 217 208 224 253 270 222 219 205 206 209 197 195 192 203 200 159 201 236 207 234 249 262 287 298 306 317 310 304 305 313 316 316 324 325 340 348 343 348 348 353 350 342 348 349 345 336 309 247 223 195 181 179 175 170 172 172 167 170 168
287 287 288 288 287 287 287 287 284 279 273 267 264 262 262 262 261 260 256 252 250 248 244 241 237 233 231 224 219 212 217 236 240 250 230 218 209 210 213 201 196 193 201 197 160 198 233 225 237 251 266 281 295 309 311 306 309 308 316 321 315 321 322 338 352 347 354 355 354 355 350 349 352 356 352 336 244 224 197 181 181 179 173 173 171 167 168 166
286 286 286 285 286 286 288 288 284 280 274 268 265 264 264 264 263 262 259 256 251 247 243 240 236 232 227 220 216 202 215 235 228 225 232 217 216 218 217 205 198 196 201 190 161 194 232 241 250 261 274 279 286 296 298 299 307 309 314 317 311 315 315 329 349 347 354 354 351 358 358 352 1 10 12 18 325 226 196 182 184 184 177 172 170 168 168 165
289 287 284 285 286 286 288 286 284 280 276 273 272 270 269 268 266 263 259 256 252 246 242 238 234 229 224 219 206 194 223 236 225 220 235 223 221 224 217 206 200 197 201 186 159 195 230 244 260 278 290 287 283 286 291 288 290 297 306 309 309 315 315 319 332 339 349 350 351 357 357 353 9 17 14 17 4 237 199 182 180 180 179 175 171 169 167 169
299 290 287 287 286 287 289 285 284 282 280 280 280 279 276 272 267 263 257 255 251 246 239 233 234 226 222 217 197 197 227 236 226 219 230 232 223 224 215 205 202 197 200 192 171 200 222 238 270 285 280 280 282 282 288 290 293 303 307 307 309 312 311 308 310 321 337 343 349 353 356 353 2 4 342 6 7 258 206 190 186 178 178 177 173 171 168 170
309 300 293 290 288 289 288 287 288 287 285 285 287 286 282 276 268 262 257 255 250 244 238 230 231 224 221 216 199 211 226 230 229 218 221 233 220 215 212 203 203 198 191 182 194 218 217 222 262 271 261 269 280 283 289 303 307 306 305 300 300 303 302 299 295 306 323 336 350 352 358 355 355 0 334 354 3 294 207 194 193 184 179 178 175 175 173 169
314 309 303 296 293 291 289 289 290 290 290 290 292 290 287 280 270 264 258 255 250 242 235 226 226 221 218 207 201 220 229 228 233 223 220 230 216 212 211 202 202 200 183 164 196 235 224 212 244 258 257 265 273 282 291 312 311 302 301 296 298 301 299 299 297 306 319 331 350 351 356 344 342 356 341 345 357 309 209 193 190 185 179 179 179 180 179 172
313 312 310 303 298 295 292 292 293 293 293 293 295 293 292 285 274 269 261 256 250 238 231 225 222 219 211 204 213 226 230 229 234 231 224 223 214 213 210 203 202 200 188 167 175 227 247 233 238 247 255 267 275 294 302 312 305 295 298 293 295 298 295 307 309 309 320 328 345 354 2 335 331 345 343 342 354 335 208 193 187 189 182 181 183 183 183 177
313 312 312 307 303 299 296 296 295 294 294 295 297 296 294 289 282 274 264 256 246 233 227 219 215 216 209 215 230 234 232 231 234 230 223 216 211 212 210 207 202 199 198 176 155 178 251 246 242 248 260 277 286 293 296 302 295 286 291 291 300 299 291 307 313 307 315 317 329 356 7 325 324 334 341 347 351 342 198 192 186 190 186 184 183 184 186 180
312 312 311 307 305 301 299 300 297 294 296 296 297 298 297 292 285 275 267 256 241 226 219 215 213 210 200 218 237 236 230 229 230 224 215 209 205 210 211 207 204 203 203 190 170 185 238 242 237 244 254 268 271 269 278 287 286 283 284 285 299 305 297 300 306 314 326 302 299 332 346 316 318 323 328 342 343 317 190 191 189 188 187 187 184 185 188 182
311 313 311 306 304 302 301 300 297 296 296 297 300 300 297 293 287 278 267 251 237 222 211 209 212 208 203 226 239 239 232 223 224 217 206 201 191 202 211 205 206 207 205 204 205 220 241 241 237 248 259 262 260 259 268 274 273 282 295 292 294 306 312 300 292 316 338 268 275 302 316 302 312 319 323 335 337 300 190 190 193 191 188 187 186 190 188 184
310 312 310 306 303 301 299 299 297 297 297 300 301 298 296 292 282 276 263 245 224 198 198 204 196 198 237 247 243 223 207 211 218 206 197 196 183 201 210 202 208 207 208 214 224 239 244 246 248 254 262 257 250 248 253 265 272 274 294 311 311 306 313 301 285 310 340 269 276 294 313 321 325 322 326 339 342 313 204 194 194 191 189 189 188 191 187 185
308 310 310 306 303 301 299 299 297 297 299 300 299 298 295 284 282 285 252 231 201 160 123 218 181 140 277 236 176 184 201 209 211 192 190 193 184 203 202 191 210 205 206 222 232 242 237 244 249 246 251 248 243 244 249 265 277 272 276 296 302 294 303 301 291 300 314 292 307 319 337 352 325 318 330 341 338 318 231 202 192 182 186 193 190 190 188 186
307 308 310 306 304 301 297 298 297 298 300 297 296 292 275 245 19 325 262 204 195 169 132 155 171 137 339 182 173 199 218 215 199 187 194 194 185 201 197 186 207 204 205 219 230 237 232 238 243 242 246 247 248 249 253 263 269 274 279 285 287 289 303 300 288 287 273 307 321 329 339 338 270 299 332 340 332 318 268 212 197 180 183 191 190 191 190 187
305 306 310 307 304 301 298 298 296 297 296 293 293 277 258 205 128 308 233 172 204 195 162 154 176 178 175 187 206 217 227 205 188 190 199 194 185 195 199 191 199 210 211 215 227 230 228 240 245 245 248 250 254 256 258 264 269 275 278 278 283 293 305 298 286 281 289 305 311 320 346 336 281 285 320 332 332 326 305 222 208 192 185 188 190 192 190 186
301 304 307 305 306 302 298 298 296 298 294 290 286 265 259 223 190 215 186 166 226 222 180 182 195 184 172 182 221 215 191 182 181 193 198 189 185 189 199 203 201 215 216 215 229 225 225 243 246 247 252 254 257 257 262 267 266 269 270 270 280 291 296 300 295 280 285 297 303 314 324 317 283 274 312 329 337 334 319 233 216 208 195 189 190 191 189 187
296 301 304 306 307 302 299 299 298 298 292 290 282 266 259 218 197 195 174 160 228 242 207 203 200 191 197 205 218 188 170 182 183 193 198 183 180 183 194 213 207 217 220 215 226 227 229 242 244 244 246 251 254 245 246 265 263 259 264 266 275 284 284 296 304 299 302 291 288 302 301 284 214 256 313 334 341 340 320 252 216 212 204 196 193 192 192 190
294 297 302 307 308 304 302 300 300 301 296 290 268 251 225 205 187 171 158 136 192 250 231 219 203 193 213 217 219 184 173 195 192 195 202 182 178 187 195 218 216 220 225 217 223 234 240 250 260 255 246 252 261 248 240 263 264 255 262 269 277 283 282 294 301 305 306 286 272 300 282 139 169 256 302 328 332 335 312 262 218 209 203 200 198 194 193 192
290 293 303 308 309 309 303 304 308 303 298 284 232 151 153 181 164 153 148 130 170 222 211 209 202 198 215 219 219 179 170 205 201 200 212 186 177 195 202 221 222 221 229 223 224 237 248 257 265 265 261 261 266 262 253 260 262 259 266 275 280 286 289 295 298 303 304 290 288 308 290 128 182 249 286 305 309 318 301 263 226 211 202 202 200 194 192 191
286 292 304 307 314 313 305 314 310 288 53 37 153 141 150 159 154 148 143 150 173 190 192 190 192 191 206 223 213 162 170 217 203 206 224 192 175 198 210 220 222 223 232 230 228 237 249 253 248 250 262 260 256 259 258 258 263 264 274 282 281 291 296 293 296 301 301 302 316 316 309 118 186 232 274 283 279 297 294 256 227 214 206 202 200 194 190 190
280 292 306 312 318 312 307 320 291 174 81 26 164 150 147 150 154 147 146 219 177 162 166 169 179 165 173 211 184 157 183 214 187 204 225 199 180 196 211 217 223 229 238 243 237 236 245 248 248 252 259 255 251 254 255 255 262 267 280 283 280 293 297 294 296 296 295 301 314 329 358 53 162 218 264 267 266 285 287 255 227 219 211 201 198 194 191 190
278 295 312 315 314 308 307 303 234 169 141 168 162 152 149 151 156 152 198 275 139 146 168 169 185 174 166 194 173 162 200 179 177 207 222 203 187 192 209 215 225 235 234 240 243 236 229 237 245 250 253 252 248 254 258 254 256 263 274 276 279 290 293 290 289 287 291 297 304 319 322 352 95 212 251 245 248 268 282 265 229 222 217 204 199 194 191 192
279 304 316 315 314 312 308 198 175 165 150 149 148 150 153 154 153 157 271 273 125 151 187 183 190 178 169 182 174 176 192 162 188 217 212 205 195 189 206 219 233 249 235 230 246 245 221 227 248 244 244 250 251 254 258 256 257 264 273 280 283 285 284 281 280 282 284 286 295 313 302 276 160 204 215 213 235 269 285 269 241 227 220 208 203 196 193 193
283 314 316 315 322 33 110 135 137 136 134 136 140 147 157 160 160 247 265 181 138 158 186 192 193 176 171 178 179 187 189 180 201 194 187 206 203 193 208 229 236 252 246 234 247 253 248 261 271 250 240 248 256 259 259 257 260 268 276 282 283 282 281 279 282 289 287 278 288 298 290 280 221 191 198 214 252 281 270 250 244 234 221 211 205 199 197 194
293 313 309 352 111 113 115 126 132 133 134 136 136 144 158 164 199 269 280 123 139 159 177 189 185 174 176 179 183 189 196 198 187 175 183 197 204 204 215 229 223 234 248 242 247 253 252 252 254 250 247 250 256 262 266 262 260 266 272 277 282 287 289 284 291 307 301 293 294 291 285 289 5 123 213 244 271 259 237 240 249 248 240 220 207 201 200 196
232 231 160 136 131 120 120 129 131 132 133 134 137 143 152 191 239 247 174 116 158 171 169 174 172 174 179 182 187 191 200 200 189 190 193 192 201 208 212 215 211 219 236 233 235 242 243 241 241 246 248 244 247 255 260 258 256 256 260 269 280 296 309 302 309 316 283 279 290 294 305 7 51 39 28 308 298 250 228 244 270 272 269 242 213 201 199 197
164 154 148 145 138 127 130 135 138 141 138 135 142 143 139 275 260 221 161 122 139 144 158 167 168 173 179 185 186 189 199 199 195 200 200 201 206 208 213 216 214 222 237 236 227 228 233 234 235 241 244 238 237 244 247 248 250 247 251 264 272 288 312 300 304 300 273 281 285 295 341 50 82 64 61 22 352 58 194 236 286 286 273 259 221 202 199 198
157 152 151 148 142 137 139 144 148 151 146 146 147 136 253 260 250 150 109 88 100 127 154 163 164 169 183 193 182 182 198 193 193 205 201 205 212 212 214 217 219 228 245 255 244 241 244 233 225 231 235 231 228 235 244 252 258 255 255 262 264 270 284 294 310 295 283 295 296 313 5 47 114 65 47 346 332 111 141 269 301 289 263 247 218 203 198 196
156 154 155 152 146 141 139 148 156 156 153 147 134 148 276 264 264 53 74 88 115 144 150 154 164 168 184 202 184 185 203 190 193 213 208 209 217 217 216 216 217 224 238 249 249 262 269 260 237 228 229 227 227 231 238 246 257 267 270 262 262 271 282 289 295 289 290 301 321 353 35 75 63 31 15 327 267 147 134 335 319 283 246 222 208 202 197 192
156 156 159 153 146 143 143 152 160 163 159 148 145 256 268 290 346 18 58 88 131 143 146 153 164 171 172 181 189 197 203 197 208 219 214 217 222 221 223 221 213 215 226 240 244 248 261 267 255 235 241 237 229 229 228 233 245 264 274 270 269 273 281 289 293 287 289 298 331 358 46 72 33 55 60 356 340 191 234 323 335 278 226 215 201 197 193 190
156 159 161 152 150 148 146 156 162 162 164 164 217 253 267 313 344 331 54 71 130 144 165 167 168 186 179 166 191 207 197 196 213 218 212 226 233 225 225 224 215 211 214 225 238 235 249 268 262 242 246 239 225 235 233 228 237 247 255 278 292 276 272 288 299 296 294 310 333 352 31 17 357 70 77 352 324 288 276 310 334 261 210 207 194 192 190 189
155 160 161 154 154 151 150 162 162 159 172 271 356 312 297 321 341 329 197 211 161 159 184 175 153 189 211 187 184 193 194 193 201 206 205 224 235 229 229 232 220 206 204 213 232 239 247 267 266 240 237 235 218 231 240 228 231 242 248 268 289 289 284 290 297 300 301 303 323 354 19 5 8 87 69 12 8 300 283 309 334 289 201 193 185 186 186 190
150 150 156 157 156 155 159 162 160 166 190 294 328 314 298 331 14 351 222 199 189 195 214 200 142 177 235 217 172 172 196 199 191 198 203 216 225 227 230 232 217 196 202 214 224 236 242 255 271 246 226 231 211 208 234 231 225 238 250 261 271 274 280 284 267 271 288 290 302 350 356 1 8 19 32 30 33 107 261 306 334 16 190 191 182 184 185 187
146 132 148 175 166 163 163 161 164 162 103 14 304 286 288 26 35 27 191 185 207 267 269 282 198 165 236 244 158 163 198 209 208 207 191 191 208 225 210 217 222 204 204 220 222 230 231 232 261 256 224 235 218 198 229 242 228 226 235 246 253 257 267 276 274 277 296 313 327 353 358 3 357 358 28 33 18 47 217 292 318 13 173 188 185 188 187 185
148 133 197 206 180 172 170 168 169 145 34 337 296 275 242 279 10 57 166 171 347 295 291 328 306 168 198 266 194 164 180 216 238 236 178 181 204 209 170 188 222 204 192 217 221 221 222 220 241 250 241 240 228 212 230 241 238 232 231 237 247 265 264 255 275 295 311 321 324 327 316 345 360 0 32 37 20 49 212 289 292 323 345 196 192 195 192 189
117 107 233 225 197 187 184 180 180 296 298 287 286 277 231 231 353 55 168 165 12 293 176 340 315 2 102 293 297 156 169 204 242 230 175 184 191 140 140 157 216 207 194 216 220 218 224 230 242 249 252 248 251 262 244 224 229 235 240 246 248 251 246 237 251 285 298 305 308 309 301 5 14 13 42 44 33 54 29 290 250 215 262 244 203 198 199 195
112 75 281 265 217 198 195 190 207 264 261 266 282 251 221 207 238 292 197 200 262 207 144 295 307 353 359 318 350 219 202 196 211 217 181 152 126 109 135 167 205 204 207 215 213 212 217 231 251 254 262 268 276 290 281 245 242 236 234 250 261 261 256 264 282 292 300 302 305 311 312 43 358 19 61 43 27 44 47 235 203 206 230 242 214 203 203 198
129 144 284 273 220 200 195 193 247 281 263 261 269 236 218 226 258 297 187 214 227 203 298 279 254 359 11 275 312 278 245 193 209 255 312 125 113 92 109 166 188 195 209 212 206 208 212 226 252 257 261 265 266 270 260 247 253 249 242 241 246 253 249 243 249 271 294 302 310 312 314 28 1 7 44 23 26 45 34 183 194 217 234 243 233 217 205 197
131 134 278 270 218 204 196 197 257 297 298 272 243 231 235 229 233 254 229 227 275 250 291 274 220 306 13 104 297 292 258 240 266 263 237 158 114 69 93 169 201 199 195 201 200 223 226 217 225 245 256 255 252 256 253 242 232 234 246 245 237 239 244 248 261 277 285 300 314 308 304 346 352 347 21 34 32 26 7 299 200 228 283 271 253 233 208 197
139 131 257 268 238 222 214 210 228 265 300 287 246 238 243 228 225 239 232 226 246 257 275 273 227 302 338 175 303 315 182 275 321 227 207 223 34 30 184 202 225 227 226 232 223 228 248 232 224 238 258 271 285 290 288 280 245 214 222 242 243 239 236 249 271 278 290 311 318 347 344 327 325 330 13 51 26 20 86 218 233 31 21 38 216 223 204 198
133 97 278 245 240 237 232 234 241 251 272 283 265 245 235 235 240 223 222 243 261 249 259 268 237 284 308 246 280 300 193 246 333 149 204 260 8 180 229 209 228 235 243 254 242 235 253 253 240 237 247 261 272 273 276 280 262 242 239 241 242 237 227 230 251 264 294 294 288 9 355 322 311 334 15 47 28 43 142 283 297 24 18 55 167 188 192 200
145 352 313 232 210 226 232 237 241 247 257 261 263 257 236 241 246 212 220 260 268 243 242 256 252 253 288 300 269 261 228 243 292 130 194 280 255 220 229 193 224 248 267 278 247 232 245 256 257 254 250 251 251 251 258 259 255 267 271 254 243 243 237 240 250 259 267 265 272 329 330 306 313 355 26 31 15 37 185 302 323 225 333 37 135 161 170 186
193 260 239 197 200 237 254 245 234 237 252 253 248 249 238 239 245 235 235 251 251 240 239 253 268 262 285 308 273 263 282 257 220 186 311 324 325 284 253 224 236 258 280 286 241 225 239 252 262 272 270 263 251 236 236 245 252 261 261 252 251 257 253 250 255 261 264 270 282 302 303 299 341 12 21 8 8 53 150 300 318 264 262 61 122 143 148 152
204 211 201 191 195 240 279 264 240 237 251 253 248 249 242 239 254 266 248 239 248 258 248 257 269 262 276 310 272 262 337 132 187 234 312 315 315 308 305 304 266 259 292 306 259 227 241 252 262 276 278 273 264 244 231 233 244 253 252 245 245 254 257 257 266 273 274 279 285 291 305 339 19 22 7 2 18 81 214 287 277 253 237 211 150 148 151 149
211 207 199 194 198 225 273 258 248 249 254 250 242 246 247 244 253 266 241 231 247 265 259 266 279 260 266 287 256 233 34 60 231 271 297 292 286 291 296 300 291 290 302 312 284 235 247 263 268 269 272 269 262 254 243 236 237 245 251 248 244 250 253 246 254 273 287 294 292 305 353 9 19 19 16 29 31 272 291 321 274 246 230 214 195 164 159 155
220 218 217 209 207 216 247 253 251 251 254 248 234 235 244 239 237 251 250 241 248 256 249 253 280 284 278 272 227 222 244 293 289 286 285 283 282 280 276 277 283 286 286 287 286 258 248 261 269 272 280 276 264 257 248 240 238 237 241 245 244 246 252 256 262 270 274 279 281 296 353 7 14 15 15 17 355 296 298 321 307 257 232 219 209 197 182 167
Height
3155 3154 3154 3154 3153 3153 3152 3152 3151 3151 3151 3150 3150 3150 3150 3150 3150 3151 3151 3151 3151 3151 3151 3151 3152 3152 3152 3152 3153 3153 3152 3152 3152 3153 3153 3153 3154 3155 3156 3156 3157 3158 3159 3159 3159 3160 3160 3160 3161 3161 3161 3161 3161 3161 3161 3161 3160 3160 3159 3159 3159 3159 3158 3157 3157 3156 3156 3155 3155 3154 3153 3152 3152 3153 3154 3155 3157 3158 3160 3162 3163 3164 3165 3167 3168 3169 3171 3172
3154 3153 3153 3152 3152 3151 3151 3151 3150 3150 3150 3149 3149 3149 3149 3149 3149 3149 3149 3150 3150 3150 3150 3150 3151 3151 3152 3152 3152 3152 3152 3152 3152 3152 3153 3153 3154 3155 3155 3156 3157 3158 3159 3159 3159 3160 3161 3162 3162 3162 3162 3162 3162 3162 3161 3162 3161 3160 3160 3160 3160 3159 3159 3158 3158 3157 3156 3155 3155 3155 3154 3153 3152 3153 3154 3155 3157 3158 3159 3160 3161 3163 3164 3166 3166 3168 3170 3171
3153 3152 3152 3151 3151 3150 3150 3149 3149 3149 3148 3148 3148 3148 3148 3148 3148 3148 3148 3148 3149 3149 3149 3149 3150 3150 3151 3151 3152 3152 3152 3152 3151 3151 3152 3153 3154 3154 3155 3156 3157 3158 3158 3159 3159 3160 3161 3162 3162 3162 3163 3162 3163 3162 3162 3162 3162 3162 3161 3161 3161 3160 3160 3159 3158 3157 3156 3156 3155 3155 3154 3154 3153 3152 3153 3154 3157 3158 3159 3159 3160 3162 3163 3165 3166 3167 3169 3170
3151 3151 3150 3150 3149 3149 3148 3148 3148 3147 3147 3147 3147 3147 3147 3147 3147 3147 3147 3147 3148 3148 3148 3148 3149 3149 3150 3150 3152 3152 3152 3152 3150 3150 3152 3152 3153 3154 3155 3155 3157 3158 3158 3158 3159 3160 3162 3163 3163 3163 3163 3163 3163 3163 3163 3162 3162 3162 3162 3162 3161 3160 3160 3160 3159 3158 3157 3156 3155 3155 3154 3154 3153 3153 3153 3154 3156 3157 3158 3160 3160 3161 3162 3164 3166 3167 3169 3170
3150 3150 3149 3149 3148 3148 3147 3147 3146 3146 3146 3146 3146 3145 3146 3146 3146 3146 3146 3146 3147 3147 3147 3148 3148 3148 3149 3150 3151 3151 3152 3152 3148 3149 3152 3151 3152 3153 3154 3155 3156 3157 3158 3159 3160 3162 3162 3163 3164 3164 3164 3164 3163 3163 3163 3163 3163 3162 3162 3162 3161 3160 3161 3160 3159 3158 3157 3156 3155 3155 3154 3154 3153 3153 3153 3153 3155 3155 3157 3159 3160 3162 3162 3164 3166 3167 3169 3170
3149 3149 3148 3148 3147 3146 3146 3145 3145 3145 3145 3144 3144 3144 3144 3144 3144 3145 3145 3146 3146 3146 3146 3147 3147 3148 3148 3149 3150 3151 3152 3151 3147 3149 3151 3151 3151 3152 3153 3154 3156 3157 3158 3159 3160 3164 3163 3164 3165 3165 3164 3164 3163 3163 3163 3163 3163 3162 3162 3162 3161 3161 3161 3160 3159 3158 3157 3157 3156 3155 3154 3154 3153 3152 3153 3153 3154 3155 3156 3158 3160 3161 3163 3164 3166 3167 3168 3169
3148 3148 3147 3147 3146 3145 3145 3144 3144 3144 3143 3143 3143 3143 3143 3143 3143 3143 3144 3144 3145 3145 3145 3146 3146 3147 3147 3148 3149 3150 3151 3149 3148 3149 3150 3150 3151 3152 3153 3154 3155 3156 3158 3158 3161 3165 3165 3164 3166 3165 3165 3164 3164 3163 3163 3163 3163 3162 3162 3162 3161 3161 3161 3160 3159 3159 3158 3157 3156 3155 3154 3153 3152 3152 3152 3153 3154 3155 3156 3158 3159 3160 3162 3164 3165 3167 3168 3169
3148 3147 3147 3146 3145 3144 3144 3143 3143 3142 3142 3142 3142 3142 3142 3142 3141 3142 3143 3143 3143 3144 3144 3145 3145 3146 3146 3148 3148 3150 3151 3148 3148 3150 3150 3150 3151 3151 3152 3153 3155 3156 3157 3158 3160 3165 3166 3165 3166 3165 3165 3165 3164 3163 3163 3162 3162 3162 3162 3162 3161 3161 3161 3160 3159 3159 3158 3157 3156 3155 3153 3152 3152 3152 3152 3153 3154 3154 3156 3157 3158 3159 3161 3163 3165 3166 3168 3169
3147 3146 3146 3145 3144 3144 3143 3142 3142 3141 3141 3141 3141 3141 3141 3141 3141 3141 3141 3142 3142 3142 3143 3144 3144 3145 3146 3147 3148 3150 3149 3145 3147 3150 3149 3150 3151 3151 3152 3154 3155 3156 3158 3158 3160 3165 3167 3166 3166 3166 3165 3165 3164 3164 3164 3163 3162 3162 3162 3162 3161 3161 3161 3160 3159 3159 3157 3157 3156 3154 3152 3152 3152 3153 3153 3154 3154 3153 3155 3157 3157 3158 3160 3162 3164 3166 3167 3169
3146 3145 3145 3144 3143 3143 3142 3142 3141 3140 3140 3140 3140 3140 3140 3140 3140 3140 3140 3140 3140 3141 3142 3143 3143 3144 3145 3146 3147 3148 3147 3144 3146 3149 3149 3150 3151 3151 3153 3154 3155 3156 3158 3158 3161 3166 3167 3168 3167 3166 3166 3165 3165 3164 3164 3164 3163 3163 3162 3162 3161 3161 3161 3160 3159 3158 3157 3156 3155 3154 3152 3152 3152 3153 3154 3155 3155 3153 3155 3156 3156 3158 3160 3162 3164 3165 3167 3168
3145 3144 3144 3143 3142 3142 3141 3141 3140 3140 3139 3139 3139 3138 3138 3138 3138 3138 3139 3139 3139 3140 3141 3141 3142 3143 3144 3144 3146 3146 3144 3144 3146 3148 3149 3150 3150 3152 3153 3154 3155 3156 3157 3159 3162 3166 3168 3169 3168 3167 3166 3166 3165 3165 3164 3164 3164 3163 3163 3162 3161 3161 3161 3160 3159 3158 3156 3155 3154 3153 3152 3152 3152 3152 3152 3155 3155 3153 3154 3155 3155 3157 3159 3161 3163 3164 3166 3167
3144 3143 3143 3142 3141 3141 3140 3140 3139 3139 3139 3138 3138 3137 3137 3137 3137 3137 3137 3137 3138 3139 3139 3140 3141 3142 3143 3144 3145 3143 3142 3144 3145 3147 3149 3149 3150 3151 3152 3153 3155 3156 3157 3160 3165 3167 3167 3169 3170 3168 3167 3166 3165 3165 3164 3164 3164 3164 3165 3163 3162 3161 3160 3159 3159 3157 3156 3155 3154 3153 3152 3152 3152 3152 3151 3153 3155 3152 3152 3154 3154 3156 3158 3160 3162 3164 3165 3166
3143 3142 3142 3141 3140 3140 3139 3139 3139 3138 3138 3137 3137 3136 3136 3136 3136 3136 3136 3136 3137 3138 3138 3139 3140 3141 3142 3144 3144 3141 3141 3145 3145 3147 3149 3149 3150 3151 3152 3153 3155 3157 3157 3160 3165 3167 3166 3167 3168 3167 3166 3166 3165 3165 3164 3164 3164 3164 3165 3163 3161 3160 3160 3159 3158 3157 3156 3154 3154 3153 3153 3152 3152 3153 3151 3151 3153 3151 3150 3152 3152 3154 3156 3158 3161 3163 3165 3166
3143 3142 3141 3140 3139 3139 3138 3138 3138 3137 3137 3136 3136 3136 3135 3135 3135 3135 3135 3136 3136 3137 3137 3138 3139 3140 3141 3142 3141 3140 3142 3145 3146 3147 3148 3149 3150 3151 3152 3153 3155 3156 3157 3159 3163 3166 3167 3165 3165 3165 3165 3165 3164 3164 3164 3164 3165 3164 3164 3162 3161 3160 3159 3159 3157 3156 3156 3154 3154 3153 3153 3153 3151 3152 3151 3150 3151 3150 3149 3151 3152 3152 3155 3158 3160 3162 3164 3166
3142 3141 3140 3139 3138 3138 3137 3137 3137 3136 3136 3136 3135 3135 3135 3134 3134 3134 3135 3135 3135 3136 3137 3138 3139 3139 3141 3142 3141 3141 3143 3145 3145 3147 3148 3149 3150 3151 3152 3153 3155 3156 3157 3159 3160 3165 3166 3164 3164 3164 3165 3165 3165 3165 3164 3164 3165 3164 3163 3161 3161 3160 3159 3158 3156 3156 3155 3153 3153 3153 3153 3153 3151 3151 3151 3150 3150 3149 3148 3149 3151 3152 3154 3157 3159 3161 3163 3166
3141 3140 3139 3138 3138 3137 3136 3136 3136 3135 3135 3135 3134 3134 3134 3134 3134 3134 3134 3134 3134 3135 3136 3137 3138 3139 3141 3141 3140 3141 3143 3144 3145 3146 3147 3149 3150 3151 3152 3153 3155 3156 3158 3159 3159 3162 3163 3162 3163 3164 3164 3166 3166 3166 3165 3165 3164 3164 3162 3161 3161 3160 3158 3156 3154 3154 3154 3152 3152 3152 3153 3152 3150 3150 3150 3149 3148 3148 3148 3148 3149 3152 3154 3156 3158 3160 3162 3165
3140 3139 3139 3138 3137 3136 3136 3135 3135 3135 3134 3134 3134 3133 3133 3133 3133 3133 3133 3134 3134 3135 3136 3137 3138 3139 3140 3140 3140 3141 3143 3143 3144 3146 3147 3148 3150 3151 3152 3153 3155 3156 3158 3159 3159 3161 3161 3161 3162 3163 3164 3165 3165 3166 3166 3165 3165 3164 3162 3161 3161 3159 3157 3155 3153 3153 3152 3151 3151 3151 3152 3151 3150 3150 3150 3150 3148 3147 3148 3148 3148 3150 3153 3156 3158 3160 3162 3164
3139 3139 3138 3137 3136 3135 3135 3135 3134 3134 3133 3133 3133 3133 3133 3133 3133 3133 3133 3133 3134 3135 3136 3137 3139 3141 3141 3140 3141 3142 3142 3142 3143 3146 3147 3148 3150 3151 3152 3154 3155 3156 3158 3159 3160 3161 3162 3162 3163 3164 3164 3164 3164 3165 3164 3163 3164 3163 3161 3160 3159 3157 3157 3156 3156 3154 3151 3152 3152 3151 3152 3152 3150 3151 3151 3150 3148 3147 3147 3148 3149 3150 3152 3155 3157 3159 3161 3164
3138 3138 3137 3136 3135 3134 3134 3134 3133 3133 3133 3133 3132 3132 3132 3132 3132 3132 3132 3133 3133 3134 3136 3138 3139 3140 3140 3139 3141 3142 3141 3142 3144 3146 3147 3148 3150 3151 3152 3154 3155 3157 3159 3160 3161 3161 3162 3163 3163 3163 3163 3163 3163 3163 3163 3162 3162 3161 3160 3159 3158 3157 3157 3157 3157 3155 3153 3153 3154 3152 3153 3153 3151 3151 3151 3150 3148 3148 3147 3147 3149 3151 3152 3153 3156 3158 3160 3163
3138 3137 3136 3135 3134 3133 3133 3133 3132 3132 3132 3132 3132 3132 3132 3132 3132 3132 3132 3133 3134 3133 3134 3138 3140 3141 3142 3141 3141 3141 3140 3142 3144 3146 3147 3148 3150 3152 3153 3155 3156 3157 3159 3161 3161 3162 3162 3163 3162 3161 3161 3161 3162 3162 3161 3161 3161 3160 3160 3159 3158 3157 3157 3156 3155 3154 3154 3154 3153 3153 3153 3152 3151 3150 3150 3150 3148 3148 3148 3147 3148 3150 3152 3152 3155 3157 3160 3162
3137 3136 3135 3134 3133 3133 3132 3132 3132 3131 3131 3131 3131 3131 3131 3131 3132 3133 3132 3133 3135 3134 3134 3138 3140 3141 3142 3141 3140 3140 3141 3143 3144 3146 3147 3148 3150 3152 3153 3155 3157 3158 3158 3161 3162 3162 3162 3161 3160 3160 3160 3160 3160 3160 3160 3160 3160 3160 3159 3159 3157 3157 3156 3154 3153 3153 3153 3153 3152 3152 3151 3150 3150 3149 3150 3149 3148 3147 3148 3148 3147 3149 3150 3152 3154 3157 3159 3162
3136 3135 3134 3133 3132 3132 3131 3131 3131 3130 3130 3130 3130 3130 3130 3131 3132 3132 3132 3133 3135 3135 3135 3137 3138 3139 3139 3139 3140 3140 3142 3143 3145 3146 3146 3148 3151 3153 3154 3155 3157 3158 3159 3160 3161 3161 3160 3159 3158 3159 3159 3159 3159 3159 3159 3159 3159 3159 3158 3157 3156 3156 3155 3152 3151 3152 3152 3151 3151 3151 3150 3149 3148 3149 3149 3148 3148 3147 3147 3148 3148 3148 3149 3151 3153 3155 3158 3160
3135 3134 3133 3132 3132 3131 3130 3130 3130 3130 3129 3129 3129 3129 3129 3130 3131 3132 3132 3133 3134 3135 3135 3136 3137 3139 3139 3139 3140 3141 3143 3145 3146 3146 3146 3148 3151 3153 3155 3156 3157 3158 3159 3159 3159 3159 3158 3156 3156 3157 3158 3158 3157 3157 3158 3158 3158 3157 3157 3156 3155 3154 3153 3151 3150 3150 3150 3149 3148 3149 3149 3149 3149 3148 3148 3148 3147 3147 3147 3147 3148 3149 3150 3152 3153 3155 3157 3159
3134 3133 3132 3131 3131 3130 3129 3129 3129 3129 3128 3128 3129 3129 3129 3130 3131 3132 3133 3133 3135 3135 3135 3136 3137 3139 3139 3140 3141 3141 3144 3146 3146 3146 3146 3148 3151 3153 3155 3156 3157 3158 3158 3158 3159 3158 3155 3155 3156 3156 3157 3157 3155 3154 3155 3156 3156 3156 3155 3154 3154 3154 3153 3151 3149 3149 3148 3146 3146 3147 3148 3149 3149 3148 3147 3147 3146 3146 3146 3147 3147 3148 3149 3151 3152 3154 3156 3158
3133 3132 3131 3131 3130 3129 3129 3128 3128 3128 3128 3128 3128 3128 3130 3131 3131 3133 3133 3133 3135 3135 3135 3136 3137 3139 3139 3139 3140 3141 3144 3146 3147 3147 3146 3147 3151 3154 3155 3156 3156 3157 3157 3157 3157 3157 3154 3154 3156 3156 3156 3156 3155 3154 3154 3155 3155 3154 3153 3153 3153 3153 3152 3150 3149 3147 3145 3144 3144 3145 3146 3148 3150 3148 3147 3146 3146 3146 3146 3146 3146 3147 3148 3149 3150 3152 3155 3157
3131 3131 3130 3130 3129 3129 3128 3128 3128 3127 3128 3128 3129 3129 3130 3131 3132 3133 3134 3134 3135 3135 3135 3137 3138 3138 3138 3139 3139 3141 3144 3146 3147 3147 3145 3147 3151 3154 3155 3156 3155 3155 3156 3156 3156 3155 3154 3154 3155 3155 3156 3156 3155 3155 3154 3155 3154 3153 3152 3152 3152 3152 3150 3149 3147 3146 3144 3142 3142 3142 3144 3147 3149 3148 3146 3146 3146 3145 3145 3145 3145 3146 3147 3148 3149 3151 3153 3155
3130 3130 3130 3129 3129 3128 3127 3127 3127 3127 3128 3129 3129 3130 3130 3131 3132 3134 3135 3134 3133 3134 3135 3137 3138 3138 3138 3139 3139 3141 3144 3144 3146 3146 3145 3147 3150 3152 3153 3154 3155 3154 3154 3155 3154 3153 3154 3154 3154 3154 3154 3155 3154 3154 3154 3154 3153 3152 3152 3152 3151 3150 3148 3147 3146 3144 3143 3141 3141 3143 3143 3145 3148 3148 3146 3145 3145 3144 3144 3144 3144 3144 3145 3147 3148 3150 3152 3154
3129 3129 3129 3128 3128 3127 3127 3127 3127 3127 3128 3129 3129 3130 3131 3132 3133 3135 3136 3133 3131 3133 3135 3135 3136 3137 3138 3139 3139 3142 3144 3144 3145 3145 3144 3147 3149 3151 3152 3152 3154 3155 3154 3155 3152 3151 3153 3153 3153 3153 3154 3154 3153 3153 3153 3154 3153 3152 3152 3151 3150 3149 3147 3146 3145 3142 3142 3140 3140 3142 3143 3143 3146 3147 3145 3144 3144 3144 3143 3142 3142 3143 3144 3145 3147 3150 3152 3154
3129 3128 3128 3128 3127 3127 3126 3126 3127 3127 3127 3128 3129 3130 3132 3133 3134 3136 3136 3133 3131 3133 3135 3135 3135 3137 3139 3139 3140 3143 3145 3145 3145 3144 3144 3147 3148 3150 3152 3152 3153 3154 3154 3155 3152 3150 3151 3152 3152 3152 3152 3153 3153 3153 3153 3152 3152 3151 3151 3150 3149 3148 3146 3144 3142 3141 3140 3139 3138 3139 3140 3141 3142 3143 3143 3144 3143 3143 3142 3141 3141 3142 3143 3144 3146 3149 3151 3153
3128 3128 3128 3128 3127 3127 3127 3126 3127 3127 3128 3129 3130 3131 3133 3134 3135 3136 3134 3131 3131 3132 3134 3135 3136 3137 3139 3140 3141 3143 3145 3145 3145 3144 3145 3147 3148 3149 3150 3152 3153 3152 3153 3153 3151 3149 3150 3151 3151 3150 3151 3151 3151 3152 3151 3151 3151 3151 3150 3149 3147 3146 3144 3142 3141 3140 3139 3137 3137 3138 3139 3138 3139 3140 3141 3142 3141 3140 3140 3140 3140 3140 3142 3144 3145 3147 3149 3151
3128 3128 3128 3128 3128 3127 3127 3127 3128 3128 3129 3131 3131 3133 3134 3135 3136 3135 3131 3128 3131 3132 3133 3134 3136 3137 3138 3140 3141 3143 3144 3145 3145 3145 3146 3147 3148 3149 3150 3151 3152 3152 3152 3152 3150 3149 3149 3150 3150 3150 3150 3150 3151 3150 3150 3150 3150 3150 3150 3148 3146 3143 3141 3140 3140 3140 3141 3140 3138 3137 3137 3137 3138 3139 3141 3141 3140 3140 3139 3139 3139 3139 3140 3141 3143 3146 3147 3150
3128 3128 3128 3128 3128 3128 3128 3129 3129 3129 3130 3132 3133 3134 3135 3137 3136 3133 3130 3128 3130 3131 3132 3134 3136 3137 3139 3140 3141 3142 3143 3145 3145 3145 3146 3146 3147 3148 3149 3150 3151 3151 3150 3149 3149 3148 3148 3149 3149 3150 3149 3149 3150 3150 3150 3150 3149 3149 3149 3148 3146 3143 3143 3144 3143 3142 3142 3141 3138 3136 3136 3138 3139 3139 3140 3141 3141 3140 3140 3139 3139 3139 3139 3139 3140 3143 3146 3148
3128 3128 3128 3129 3129 3129 3130 3130 3130 3131 3132 3133 3135 3135 3137 3138 3134 3129 3128 3129 3128 3130 3133 3134 3136 3137 3139 3140 3141 3142 3143 3144 3144 3145 3146 3146 3147 3147 3148 3149 3150 3150 3148 3146 3147 3146 3146 3146 3147 3148 3148 3148 3149 3149 3148 3148 3148 3148 3147 3147 3146 3145 3148 3150 3146 3145 3143 3138 3136 3135 3135 3139 3140 3139 3140 3142 3140 3138 3139 3140 3139 3138 3138 3137 3138 3141 3145 3147
3128 3128 3129 3129 3130 3130 3131 3131 3131 3132 3133 3134 3135 3136 3137 3137 3132 3127 3128 3129 3129 3131 3133 3135 3136 3138 3139 3139 3140 3142 3143 3143 3144 3145 3145 3146 3146 3146 3147 3147 3148 3148 3147 3146 3145 3144 3142 3141 3143 3145 3145 3146 3147 3147 3147 3147 3147 3146 3146 3146 3145 3145 3148 3147 3143 3143 3141 3134 3132 3133 3135 3138 3139 3140 3141 3140 3138 3137 3137 3139 3139 3137 3137 3136 3136 3139 3142 3146
3128 3129 3129 3130 3130 3131 3131 3132 3132 3133 3134 3135 3136 3137 3137 3133 3129 3128 3128 3130 3131 3132 3134 3135 3137 3138 3139 3139 3140 3141 3142 3142 3143 3144 3144 3145 3145 3144 3144 3145 3146 3147 3147 3146 3144 3145 3143 3140 3141 3143 3143 3144 3145 3145 3147 3147 3146 3146 3145 3145 3144 3144 3145 3143 3140 3140 3137 3133 3132 3135 3138 3140 3139 3141 3141 3139 3138 3138 3137 3137 3137 3136 3135 3135 3135 3137 3140 3144
3129 3129 3130 3130 3131 3132 3132 3133 3133 3134 3135 3136 3136 3137 3136 3133 3131 3130 3130 3131 3132 3133 3134 3136 3137 3137 3138 3139 3140 3141 3141 3142 3143 3143 3143 3143 3143 3143 3143 3143 3143 3144 3146 3146 3145 3146 3146 3143 3142 3143 3143 3143 3144 3145 3146 3146 3146 3147 3146 3144 3143 3144 3144 3142 3139 3137 3135 3135 3136 3138 3141 3142 3140 3141 3141 3140 3139 3138 3136 3136 3135 3134 3134 3134 3134 3136 3140 3144
3129 3130 3130 3131 3132 3132 3133 3133 3134 3135 3136 3136 3136 3136 3135 3134 3133 3133 3132 3132 3132 3133 3134 3134 3135 3135 3135 3138 3140 3140 3139 3140 3142 3142 3142 3142 3141 3140 3141 3141 3141 3142 3144 3146 3146 3146 3147 3145 3143 3143 3143 3142 3143 3144 3145 3145 3146 3146 3145 3144 3143 3143 3143 3142 3140 3137 3135 3137 3138 3139 3141 3142 3142 3141 3141 3139 3139 3138 3137 3135 3134 3134 3133 3134 3135 3138 3142 3145
3129 3130 3131 3132 3132 3133 3134 3134 3135 3135 3136 3136 3135 3135 3135 3134 3134 3133 3133 3133 3133 3134 3133 3132 3133 3134 3134 3134 3136 3138 3138 3139 3141 3141 3142 3142 3140 3139 3140 3139 3140 3141 3143 3145 3146 3146 3147 3145 3142 3141 3141 3141 3142 3144 3143 3144 3145 3145 3145 3144 3143 3142 3142 3142 3142 3141 3139 3137 3137 3138 3139 3140 3142 3142 3140 3139 3138 3138 3137 3135 3134 3134 3133 3133 3135 3139 3143 3146
3130 3131 3132 3133 3133 3134 3135 3135 3136 3136 3136 3136 3136 3136 3135 3134 3135 3134 3133 3133 3133 3134 3132 3131 3132 3132 3132 3131 3132 3135 3137 3138 3138 3138 3139 3140 3138 3138 3139 3139 3139 3141 3143 3145 3145 3146 3146 3145 3142 3140 3140 3141 3141 3142 3142 3142 3143 3144 3144 3144 3143 3143 3142 3141 3141 3140 3138 3134 3133 3136 3138 3139 3140 3140 3138 3138 3137 3137 3136 3135 3134 3133 3133 3133 3135 3138 3141 3144
3130 3132 3133 3133 3134 3135 3135 3136 3136 3137 3136 3136 3136 3136 3136 3135 3135 3135 3134 3133 3134 3134 3132 3131 3131 3132 3132 3131 3131 3133 3135 3136 3136 3135 3136 3138 3137 3136 3137 3139 3139 3140 3142 3144 3145 3145 3145 3145 3143 3140 3139 3140 3138 3139 3141 3141 3141 3142 3142 3143 3142 3141 3141 3140 3138 3136 3135 3132 3132 3137 3140 3141 3141 3140 3138 3138 3138 3137 3135 3134 3133 3133 3133 3134 3135 3137 3140 3143
3131 3132 3134 3134 3134 3135 3136 3136 3137 3137 3136 3137 3136 3136 3136 3136 3135 3135 3135 3134 3134 3134 3133 3131 3131 3132 3132 3132 3131 3132 3134 3135 3134 3133 3134 3135 3135 3134 3136 3139 3139 3139 3141 3143 3144 3144 3144 3144 3143 3141 3139 3139 3137 3138 3140 3140 3140 3140 3140 3140 3140 3140 3140 3139 3138 3137 3137 3136 3136 3139 3140 3140 3140 3140 3139 3138 3138 3137 3136 3133 3133 3133 3133 3134 3135 3137 3139 3141
3132 3134 3135 3134 3135 3136 3136 3137 3137 3137 3137 3137 3137 3136 3136 3136 3136 3136 3136 3136 3135 3135 3134 3134 3132 3131 3133 3132 3131 3132 3134 3135 3133 3132 3133 3134 3133 3134 3136 3138 3139 3139 3141 3142 3142 3143 3143 3143 3142 3141 3140 3138 3137 3137 3137 3138 3138 3139 3140 3140 3140 3139 3138 3136 3136 3137 3138 3138 3138 3138 3139 3139 3140 3139 3139 3139 3138 3138 3137 3135 3134 3134 3134 3134 3134 3135 3137 3140
3132 3135 3135 3135 3135 3136 3136 3137 3137 3138 3138 3138 3137 3136 3136 3137 3137 3136 3136 3136 3136 3135 3135 3136 3134 3133 3134 3134 3133 3133 3133 3134 3133 3131 3132 3133 3133 3134 3137 3138 3139 3140 3140 3141 3141 3142 3142 3143 3142 3141 3141 3139 3138 3137 3137 3137 3137 3137 3138 3139 3139 3137 3136 3135 3135 3135 3136 3137 3137 3137 3138 3139 3139 3138 3138 3138 3138 3137 3138 3137 3135 3135 3134 3133 3132 3132 3135 3138
3131 3134 3135 3134 3134 3135 3136 3137 3138 3138 3138 3138 3138 3137 3137 3137 3137 3137 3137 3137 3137 3137 3136 3137 3136 3136 3136 3136 3135 3134 3134 3134 3133 3132 3132 3134 3134 3136 3138 3139 3139 3140 3140 3140 3141 3141 3142 3143 3143 3142 3141 3140 3139 3138 3138 3138 3138 3137 3138 3139 3139 3138 3137 3136 3135 3134 3135 3136 3137 3137 3137 3138 3139 3137 3137 3137 3137 3137 3137 3137 3136 3135 3133 3132 3131 3131 3133 3136
3133 3134 3135 3134 3134 3135 3135 3136 3138 3138 3137 3137 3137 3137 3137 3137 3137 3137 3137 3137 3137 3137 3137 3137 3137 3137 3137 3137 3137 3136 3135 3135 3135 3134 3134 3135 3135 3136 3138 3139 3140 3140 3140 3140 3141 3141 3142 3143 3143 3142 3140 3138 3137 3136 3136 3137 3137 3138 3138 3137 3137 3136 3136 3135 3134 3134 3134 3136 3138 3138 3137 3138 3138 3137 3136 3135 3135 3136 3136 3135 3135 3134 3133 3131 3130 3130 3132 3135
3133 3135 3137 3136 3135 3136 3136 3136 3137 3138 3138 3138 3137 3137 3137 3136 3136 3136 3137 3137 3138 3138 3138 3138 3138 3138 3137 3138 3138 3137 3137 3137 3136 3135 3135 3136 3136 3137 3138 3139 3140 3139 3139 3140 3141 3142 3142 3142 3142 3142 3140 3138 3136 3136 3136 3135 3134 3135 3136 3135 3134 3134 3135 3136 3135 3135 3135 3137 3138 3138 3138 3138 3138 3137 3136 3135 3135 3135 3135 3134 3134 3134 3133 3131 3130 3131 3132 3134
3133 3135 3137 3137 3136 3136 3137 3137 3138 3138 3138 3138 3137 3136 3137 3136 3137 3137 3136 3137 3138 3138 3138 3138 3138 3138 3138 3138 3138 3138 3138 3138 3137 3137 3137 3137 3138 3139 3139 3139 3140 3139 3139 3140 3141 3141 3142 3141 3140 3140 3140 3139 3138 3138 3137 3135 3134 3133 3133 3133 3132 3132 3133 3134 3134 3134 3136 3137 3138 3138 3139 3138 3137 3138 3137 3134 3135 3136 3135 3134 3134 3134 3133 3132 3131 3131 3132 3135
3133 3135 3137 3137 3137 3137 3138 3138 3138 3138 3138 3138 3138 3137 3137 3137 3137 3137 3137 3137 3138 3138 3137 3138 3138 3138 3138 3138 3139 3138 3138 3138 3138 3138 3138 3138 3139 3139 3139 3139 3140 3139 3139 3140 3140 3141 3141 3140 3139 3139 3138 3137 3137 3137 3137 3136 3135 3134 3133 3131 3131 3131 3132 3133 3133 3134 3135 3136 3137 3138 3138 3138 3137 3138 3137 3135 3135 3136 3135 3134 3134 3134 3133 3133 3132 3131 3132 3136
3130 3132 3133 3133 3134 3136 3136 3135 3135 3136 3137 3137 3137 3137 3138 3137 3137 3137 3137 3138 3138 3138 3138 3137 3138 3139 3139 3139 3139 3139 3139 3139 3139 3139 3139 3139 3139 3139 3139 3139 3139 3139 3140 3139 3139 3140 3140 3140 3139 3138 3137 3135 3134 3135 3135 3135 3135 3135 3134 3132 3132 3132 3132 3132 3133 3133 3134 3135 3136 3137 3137 3137 3137 3137 3138 3137 3136 3136 3136 3134 3134 3134 3134 3134 3134 3133 3134 3137
3127 3128 3129 3129 3131 3133 3134 3134 3135 3136 3137 3136 3137 3137 3137 3137 3137 3137 3137 3138 3138 3138 3138 3138 3138 3139 3139 3139 3139 3139 3139 3139 3140 3140 3141 3141 3140 3139 3139 3139 3139 3139 3140 3139 3139 3139 3139 3139 3139 3138 3137 3135 3133 3132 3133 3134 3134 3134 3133 3133 3133 3132 3131 3132 3133 3133 3134 3135 3136 3136 3137 3137 3136 3136 3138 3138 3138 3137 3137 3136 3135 3135 3135 3136 3136 3137 3137 3139
3126 3127 3128 3129 3130 3131 3133 3134 3135 3136 3136 3136 3137 3137 3137 3137 3137 3137 3138 3138 3138 3139 3139 3139 3139 3139 3139 3139 3140 3139 3139 3140 3140 3141 3141 3141 3141 3141 3140 3140 3140 3140 3140 3139 3139 3139 3138 3138 3138 3138 3136 3134 3132 3132 3132 3132 3133 3132 3132 3132 3132 3131 3130 3131 3133 3133 3134 3136 3136 3136 3137 3138 3137 3137 3138 3139 3139 3138 3138 3138 3138 3136 3136 3137 3138 3139 3140 3141
3127 3127 3128 3129 3130 3131 3132 3134 3135 3135 3135 3135 3135 3135 3136 3136 3136 3137 3137 3137 3138 3138 3138 3138 3139 3139 3139 3139 3138 3138 3139 3139 3140 3140 3140 3140 3140 3141 3140 3139 3140 3140 3139 3139 3139 3139 3139 3138 3138 3137 3135 3133 3132 3131 3130 3130 3129 3129 3130 3130 3130 3130 3130 3131 3132 3134 3135 3136 3136 3136 3137 3138 3138 3139 3139 3139 3139 3138 3138 3139 3138 3137 3137 3138 3139 3141 3142 3143